Location: Ceske Budejovice
(48.9830°N, 14.4670°E)
Time: 12:45:47
(UTC+02:00)

ISS - Visible Passes

Search period start: 16 July 2019 00:00
Search period end: 26 July 2019 00:00
Orbit: 409 x 418 km, 51.6° (Epoch: 16 July)

Date Brightness Start Highest point End Pass type
(mag) Time Alt. Az. Time Alt. Az. Time Alt. Az.
16 Jul -3.0 01:32:50 10° W 01:36:06 53° N 01:39:22 10° ENE visible
16 Jul -3.5 03:09:43 10° WNW 03:13:02 69° NNE 03:16:20 10° E visible
16 Jul -3.6 23:06:52 10° SW 23:10:04 46° SSE 23:13:17 10° ENE visible
17 Jul -3.3 00:43:26 10° W 00:46:44 59° N 00:50:02 10° ENE visible
17 Jul -3.2 02:20:24 10° WNW 02:23:41 58° N 02:26:58 10° E visible
17 Jul -3.6 03:57:09 10° WNW 04:00:22 50° SSW 04:03:35 10° SE visible
17 Jul -3.0 22:17:53 10° SSW 22:20:52 31° SE 22:23:51 10° E visible
17 Jul -3.6 23:54:03 10° WSW 23:57:23 73° NNW 00:00:43 10° ENE visible
18 Jul -3.0 01:31:02 10° WNW 01:34:19 52° N 01:37:34 10° E visible
18 Jul -3.9 03:07:48 10° WNW 03:11:07 73° SSW 03:14:25 10° ESE visible
18 Jul -3.9 23:04:42 10° WSW 23:08:03 86° SSE 23:11:23 10° ENE visible
19 Jul -2.9 00:41:39 10° W 00:44:55 51° N 00:48:10 10° ENE visible
19 Jul -3.8 02:18:28 10° WNW 02:21:48 83° NNE 02:25:07 10° ESE visible
19 Jul -2.7 03:55:28 10° W 03:58:14 24° SW 04:00:59 10° SSE visible
19 Jul -3.8 22:15:26 10° SW 22:18:44 62° SSE 22:22:03 10° ENE visible
19 Jul -3.0 23:52:13 10° W 23:55:30 54° N 23:58:47 10° ENE visible
20 Jul -3.5 01:29:07 10° WNW 01:32:27 65° NNE 01:35:45 10° E visible
20 Jul -3.3 03:05:55 10° W 03:11:55 11° SE 03:12:07 10° SE visible
20 Jul -3.3 23:02:47 10° W 23:06:06 62° NNW 23:09:25 10° ENE visible
21 Jul -3.1 00:39:45 10° WNW 00:43:03 56° N 00:45:10 19° E visible
21 Jul -2.1 02:16:29 10° WNW 02:17:54 23° W 02:17:54 23° W visible
21 Jul -3.6 22:13:21 10° WSW 22:16:42 78° NNW 22:20:03 10° ENE visible
21 Jul -3.0 23:50:20 10° WNW 23:53:37 51° N 23:56:29 13° E visible
22 Jul -2.8 01:27:07 10° WNW 01:29:16 37° WNW 01:29:16 37° WNW visible
22 Jul -2.9 23:00:53 10° W 23:04:10 51° N 23:07:27 10° ENE visible
23 Jul -3.7 00:37:44 10° WNW 00:41:00 77° N 00:41:00 77° N visible
23 Jul -3.1 22:11:25 10° W 22:14:43 56° N 22:18:01 10° ENE visible
23 Jul -3.4 23:48:20 10° WNW 23:51:40 62° NNE 23:52:55 34° E visible
24 Jul -1.3 01:25:07 10° WNW 01:25:42 14° W 01:25:42 14° W visible
24 Jul -3.1 22:58:55 10° WNW 23:02:13 54° N 23:04:54 14° E visible
25 Jul -2.5 00:35:40 10° WNW 00:37:42 33° W 00:37:42 33° W visible
25 Jul -2.9 22:09:27 10° WNW 22:12:44 51° N 22:16:01 10° E visible
25 Jul -4.0 23:46:15 10° WNW 23:49:35 87° SSW 23:49:45 80° SE visible
